Snowfall_Accumulation
0.0 0.0 0.0 0.0 0.0 0.0 0.0 0.0 0.0 0.0 0.0 0.0 0.0 0.0 0.0 0.0 0.0 0.0 0.0 0.0 0.0 0.0 0.0 0.0 0.0 0.0 0.0 0.0 0.0 0.0 0.0 0.0 0.0 0.0 0.0 0.0 0.0 0.0
0.0 0.0 0.0 0.0 0.0 0.0 0.0 0.0 0.0 0.1 0.0 0.0 0.0 0.0 0.0 0.0 0.0 0.0 0.0 0.0 0.0 0.0 0.0 0.0 0.0 0.0 0.0 0.0 0.0 0.0 0.0 0.0 0.0 0.0 0.0 0.0 0.0 0.0
0.0 0.0 0.0 0.0 0.0 0.0 0.0 0.0 0.0 0.0 0.0 1.0 0.8 0.4 0.0 0.0 0.0 0.0 0.0 0.0 0.0 0.0 0.0 0.0 0.0 0.0 0.0 0.0 0.0 0.0 0.0 0.0 0.0 0.0 0.0 0.0 0.0 0.0
0.0 0.0 0.0 0.0 0.0 0.0 0.0 0.3 0.0 0.1 0.9 0.8 0.1 0.1 0.0 0.0 0.0 0.0 0.0 0.0 0.1 0.0 0.0 0.0 0.0 0.0 0.0 0.0 0.0 0.0 0.0 0.0 0.0 0.0 0.0 0.0 0.0 0.0
0.0 0.0 0.0 0.0 0.0 0.0 0.8 0.3 0.1 0.9 0.4 0.5 0.2 0.0 0.0 0.0 0.0 0.0 0.0 0.0 0.0 0.0 0.0 0.0 0.0 0.0 0.0 0.0 0.0 0.0 0.0 0.0 0.0 0.0 0.0 0.0 0.0 0.0
0.0 0.0 0.0 0.0 0.1 0.5 0.9 0.5 0.2 0.1 0.0 0.3 0.0 0.7 0.4 0.0 0.4 0.2 0.0 0.0 0.0 0.0 0.0 0.0 0.0 0.0 0.0 0.0 0.0 0.0 0.0 0.0 0.0 0.0 0.0 0.0 0.0 0.0
0.7 1.8 1.3 0.6 0.3 0.1 0.2 0.4 0.0 0.0 0.7 2.4 2.3 1.4 0.8 0.3 0.1 0.0 0.0 0.0 0.0 0.0 0.0 0.0 0.0 0.0 0.0 0.0 0.0 0.0 0.0 0.0 0.0 0.0 0.0 0.0 0.0 0.0
1.3 1.1 0.6 0.8 0.4 0.0 0.0 0.0 0.0 0.8 2.7 4.0 3.4 1.5 0.0 0.0 0.0 0.0 0.9 2.0 2.2 0.0 0.0 0.1 0.0 0.0 0.0 0.0 0.0 0.0 0.0 0.0 0.0 0.0 0.0 0.0 0.0 0.0
2.1 1.9 1.1 0.4 0.3 0.2 0.0 0.0 0.1 0.4 0.4 0.4 0.3 0.1 0.2 0.0 1.8 3.5 2.2 2.7 1.6 0.0 0.1 0.5 0.0 0.0 0.0 0.0 0.0 0.0 0.0 0.0 0.0 0.0 0.0 0.0 0.0 0.0
0.5 0.5 0.0 0.0 0.0 0.1 0.2 1.5 0.9 0.2 0.0 0.0 0.0 0.1 0.5 0.3 0.4 0.8 0.7 0.9 0.4 0.0 0.1 2.3 0.1 0.1 0.0 0.0 0.0 0.0 0.0 0.0 0.0 0.0 0.0 0.0 0.0 0.0
0.1 0.0 0.1 0.1 0.0 0.0 1.0 1.5 0.2 0.0 0.0 0.0 0.1 0.1 0.0 0.0 0.0 1.6 3.1 3.3 2.2 0.1 0.0 0.7 0.3 0.2 0.0 0.0 0.0 0.0 0.0 0.0 0.0 0.0 0.0 0.0 0.0 0.0
0.0 0.0 0.0 0.0 0.0 0.3 0.5 0.1 0.6 0.0 0.9 0.7 0.0 0.0 0.0 0.0 0.0 0.1 3.4 11.8 5.6 4.6 0.0 4.0 1.6 0.9 8.1 1.5 1.4 0.8 0.0 0.0 0.0 0.0 0.0 0.0 0.0 0.1
0.3 0.0 0.0 0.1 0.5 0.1 0.0 0.0 0.1 0.1 0.1 0.1 0.7 0.0 0.0 0.5 0.6 0.6 1.6 10.4 15.8 9.7 0.0 8.3 11.5 3.5 9.5 3.1 2.8 2.6 1.6 0.0 0.0 0.0 0.0 0.0 0.1 0.1
0.2 0.0 0.2 0.7 0.0 0.0 0.0 0.1 0.1 0.2 0.0 0.1 0.2 0.2 0.2 0.3 0.2 0.2 0.7 1.8 3.5 9.3 3.4 5.6 21.7 9.2 14.5 10.0 4.3 4.7 3.5 2.6 1.2 1.6 2.1 1.3 0.6 0.4
0.1 0.4 0.4 0.0 0.0 0.0 0.0 0.0 0.0 0.0 0.5 1.9 1.3 0.5 0.3 0.6 1.1 3.6 3.9 4.2 5.2 5.8 6.9 7.0 11.1 12.0 16.2 15.1 9.6 5.7 7.9 5.7 4.1 7.8 8.1 6.9 3.0 2.3
0.9 0.8 0.0 0.0 0.0 0.0 0.0 0.0 0.0 0.1 1.6 3.7 3.7 1.9 2.2 4.1 4.6 5.5 9.9 9.1 12.6 9.9 8.9 8.3 8.8 11.2 14.7 8.5 9.8 9.0 6.8 13.3 7.7 7.4 8.8 6.8 4.8 2.9
0.3 0.0 0.0 0.0 0.0 0.0 0.0 0.0 0.0 0.0 1.4 1.8 3.7 4.0 4.2 5.8 7.1 8.9 12.7 15.0 16.2 11.7 11.0 9.1 7.2 7.1 6.9 7.3 10.1 7.3 8.6 10.6 10.2 10.1 10.2 11.5 6.9 1.7
0.0 0.0 0.0 0.2 0.1 0.2 0.1 1.0 1.5 1.3 2.3 5.0 5.5 5.6 8.0 9.6 11.0 12.8 14.5 16.0 15.6 10.8 11.0 9.0 7.4 7.2 4.8 5.3 5.7 11.7 9.5 11.8 11.0 10.1 9.4 12.3 9.9 4.2
0.0 0.4 1.2 1.3 1.1 1.8 0.5 3.1 4.6 3.3 5.4 8.3 8.8 8.9 10.6 11.8 12.1 14.2 13.0 13.2 11.6 9.3 8.8 7.3 8.4 12.1 14.4 7.4 4.8 4.9 17.2 13.2 9.6 9.0 7.0 6.3 8.0 6.1
0.2 1.7 2.5 2.8 3.2 4.3 5.0 6.2 6.1 5.2 7.2 7.7 10.1 10.7 11.8 15.4 15.3 14.6 12.4 12.3 11.3 7.3 5.5 3.2 4.2 9.9 21.4 19.2 16.4 10.1 6.8 13.8 11.4 10.7 7.5 5.3 3.8 1.6
1.6 1.5 2.0 2.4 3.3 3.9 4.3 5.3 6.3 9.5 12.1 14.2 11.8 12.2 12.5 17.5 15.1 10.6 9.9 5.8 5.2 5.4 5.4 1.8 1.0 2.3 6.4 8.2 9.5 5.9 8.6 5.8 5.5 12.1 10.4 9.8 6.7 5.0
0.3 1.1 1.0 1.0 3.0 4.0 5.6 5.9 7.9 8.0 9.8 10.4 10.9 11.7 13.3 14.8 14.2 9.8 6.3 7.3 4.6 4.2 4.0 1.9 2.8 4.0 4.7 7.4 7.2 6.5 7.6 6.6 2.6 2.2 2.1 4.9 15.4 21.8
1.0 1.2 1.3 2.0 2.8 3.9 5.5 7.3 9.5 9.9 10.7 13.9 13.2 12.3 12.8 12.1 5.7 5.3 5.2 5.3 6.1 5.6 4.1 4.5 2.8 2.3 3.2 5.7 7.0 6.6 3.8 4.3 2.9 3.5 6.0 2.3 2.4 1.8